CW7283 Weather Reports


time (UTC)temp
F
wind
direction
speed
knots
gust
knots
rain 1hr
in
rain 24hr
in
rain mn
in
humidity
%
barometer
mb
20260906223333 85 191 0.0 1.7 0.00 0.00 0.00 39 1010.7
20260906221827 85 294 0.0 1.7 0.00 0.00 0.00 39 1010.7
20260906220341 86 244 0.0 1.7 0.00 0.00 0.00 39 1010.7
20260906214832 87 246 0.0 1.7 0.00 0.00 0.00 38 1011.1
20260906213331 86 263 0.0 1.7 0.00 0.00 0.00 40 1011.2
20260906211834 85 155 0.0 1.7 0.00 0.00 0.00 39 1011.6
20260906210403 85 222 0.0 1.7 0.00 0.00 0.00 39 1011.8
20260906204849 84 146 0.0 1.7 0.00 0.00 0.00 40 1012.1
20260906203328 83 146 0.0 1.7 0.00 0.00 0.00 41 1012.3
20260906201841 83 129 0.0 1.7 0.00 0.00 0.00 42 1012.4
20260906200339 81 49 0.0 1.7 0.00 0.00 0.00 45 1012.8
20260906194846 80 342 0.0 0.9 0.00 0.00 0.00 47 1012.9
20260906193406 78 237 0.0 1.7 0.00 0.00 0.00 50 1013.0
20260906191826 79 219 0.0 1.7 0.00 0.00 0.00 51 1013.5
20260906190400 77 165 0.0 1.7 0.00 0.00 0.00 53 1013.7
20260906184854 77 302 0.0 3.5 0.00 0.00 0.00 53 1013.8
20260906183340 77 136 0.0 2.6 0.00 0.00 0.00 52 1014.2
20260906181841 76 319 0.0 1.7 0.00 0.00 0.00 53 1014.3
20260906180328 75 222 0.0 2.6 0.00 0.00 0.00 53 1014.6
20260906174825 74 151 0.9 1.7 0.00 0.00 0.00 55 1014.8
20260906173348 74 288 1.7 2.6 0.00 0.00 0.00 54 1014.9
20260906171830 72 199 0.0 2.6 0.00 0.00 0.00 58 1015.1
20260906170333 72 221 0.9 2.6 0.00 0.00 0.00 58 1015.3
20260906164832 70 227 0.9 1.7 0.00 0.00 0.00 59 1015.4
20260906163349 70 355 0.0 2.6 0.00 0.00 0.00 62 1015.6
20260906161836 70 189 0.0 1.7 0.00 0.00 0.00 59 1015.8
20260906160340 69 27 0.0 1.7 0.00 0.00 0.00 59 1015.9
20260906154858 67 306 0.0 1.7 0.00 0.00 0.00 60 1015.9
20260906153337 65 321 0.0 1.7 0.00 0.00 0.00 62 1016.0
20260906151839 62 148 0.0 0.9 0.00 0.00 0.00 67 1016.0
20260906150350 60 157 0.0 0.9 0.00 0.00 0.00 69 1016.0
20260906144834 58 151 0.0 0.0 0.00 0.00 0.00 73 1016.2
20260906143356 56 132 0.0 0.0 0.00 0.00 0.00 73 1016.2
20260906141838 55 134 0.0 1.7 0.00 0.00 0.00 74 1016.2
20260906140326 53 149 0.0 0.0 0.00 0.00 0.00 77 1016.1
20260906134853 52 149 0.0 0.0 0.00 0.00 0.00 77 1016.1
20260906133408 51 149 0.0 0.0 0.00 0.00 0.00 77 1016.2
20260906131828 50 137 0.0 1.7 0.00 0.00 0.00 78 1016.3
20260906130338 50 164 0.0 0.0 0.00 0.00 0.00 80 1016.4
20260906124851 49 209 0.0 0.0 0.00 0.00 0.00 81 1016.2
20260906123339 49 242 0.0 0.0 0.00 0.00 0.00 81 1016.0
20260906121825 49 242 0.0 0.0 0.00 0.00 0.00 81 1016.0
20260906120325 49 279 0.0 0.0 0.00 0.00 0.00 80 1015.9
20260906114908 49 279 0.0 0.0 0.00 0.00 0.00 81 1015.6
20260906113355 50 279 0.0 0.0 0.00 0.00 0.00 79 1015.5
20260906111851 50 279 0.0 0.0 0.00 0.00 0.00 79 1015.3
20260906110341 51 279 0.0 0.0 0.00 0.00 0.00 78 1015.4
20260906104826 51 279 0.0 0.0 0.00 0.00 0.00 79 1015.3
20260906103353 51 279 0.0 0.0 0.00 0.00 0.00 77 1015.3
20260906101833 52 279 0.0 0.0 0.00 0.00 0.00 76 1015.3
20260906100325 52 279 0.0 0.0 0.00 0.00 0.00 75 1015.3
20260906094835 53 279 0.0 0.0 0.00 0.00 0.00 75 1015.3
20260906093338 53 279 0.0 0.0 0.00 0.00 0.00 74 1015.3
20260906091840 53 259 0.0 0.0 0.00 0.00 0.00 74 1015.3
20260906090342 54 259 0.0 0.0 0.00 0.00 0.00 73 1015.3
20260906084847 54 260 0.0 0.0 0.00 0.00 0.00 73 1015.4
20260906083339 54 242 0.0 0.0 0.00 0.00 0.00 72 1015.5
20260906081902 55 242 0.0 0.0 0.00 0.00 0.00 71 1015.7
20260906080349 55 242 0.0 0.0 0.00 0.00 0.00 70 1015.9
20260906074849 55 242 0.0 0.0 0.00 0.00 0.00 68 1015.9
20260906073401 56 242 0.0 0.0 0.00 0.00 0.00 67 1015.9
20260906071826 56 242 0.0 0.0 0.00 0.00 0.00 67 1016.0
20260906070400 57 242 0.0 0.0 0.00 0.00 0.00 66 1016.1
20260906064835 57 242 0.0 0.0 0.00 0.00 0.00 66 1016.2
20260906063338 57 244 0.0 0.0 0.00 0.00 0.00 66 1016.4
20260906061837 58 250 0.0 0.0 0.00 0.00 0.00 67 1016.5
20260906060350 58 251 0.0 0.0 0.00 0.00 0.00 64 1016.5
20260906054905 59 253 0.0 0.0 0.00 0.00 0.00 62 1016.5
20260906053328 59 193 0.0 0.0 0.00 0.00 0.00 61 1016.6
20260906051840 60 218 0.0 0.0 0.00 0.00 0.00 60 1016.6
20260906050332 61 236 0.0 0.0 0.00 0.00 0.00 59 1016.5
20260906044842 61 234 0.0 0.0 0.00 0.00 0.00 60 1016.7
20260906043335 62 238 0.0 0.0 0.00 0.00 0.00 61 1016.8
20260906041842 63 238 0.0 0.0 0.00 0.00 0.00 59 1016.7
20260906040346 63 242 0.0 0.0 0.00 0.00 0.00 59 1016.5
20260906034835 63 221 0.0 0.0 0.00 0.00 0.00 57 1016.5
20260906033335 64 215 0.0 0.0 0.00 0.00 0.00 55 1016.5
20260906031859 65 216 0.0 0.0 0.00 0.00 0.00 55 1016.2
20260906030351 66 273 0.0 0.0 0.00 0.00 0.00 53 1016.3
20260906024834 68 295 0.0 0.9 0.00 0.00 0.00 50 1015.9
20260906023353 70 242 0.0 0.0 0.00 0.00 0.00 46 1015.8
20260906021858 71 269 0.0 0.0 0.00 0.00 0.00 46 1015.6
20260906020345 72 287 0.0 0.0 0.00 0.00 0.00 44 1015.5
20260906014841 73 287 0.0 0.0 0.00 0.00 0.00 43 1015.4
20260906013349 74 287 0.0 0.0 0.00 0.00 0.00 42 1015.3
20260906011839 75 287 0.0 0.0 0.00 0.00 0.00 42 1015.3
20260906010337 76 290 0.0 0.0 0.00 0.00 0.00 40 1015.3
20260906004910 78 290 0.0 0.0 0.00 0.00 0.00 39 1015.3
20260906003345 79 290 0.0 0.0 0.00 0.00 0.00 36 1015.3
20260906001900 80 286 0.0 0.0 0.00 0.00 0.00 35 1015.3
20260906000333 80 325 0.0 0.0 0.00 0.00 0.00 35 1015.3
20260905234829 80 338 0.0 1.7 0.00 0.00 0.00 35 1015.3
20260905233337 80 275 0.0 0.9 0.00 0.00 0.00 35 1015.4
20260905231846 83 309 0.0 1.7 0.00 0.00 0.00 33 1015.3
20260905230330 83 153 0.0 1.7 0.00 0.00 0.00 32 1015.4
20260905224823 84 26 0.0 0.9 0.00 0.00 0.00 33 1015.4